Date,TemperatureHighF,TemperatureAvgF,TemperatureLowF,DewpointHighF,DewpointAvgF,DewpointLowF,HumidityHigh,HumidityAvg,HumidityLow,PressureMaxIn,PressureMinIn,WindSpeedMaxMPH,WindSpeedAvgMPH,GustSpeedMaxMPH,PrecipitationSumIn
2013-1-1,76,65,57,60,57,54,90,75,56,30.18,29.99,12,2,0,0.00
2013-1-2,78,69,61,66,62,57,89,79,62,30.02,29.92,12,3,0,0.00
2013-1-3,73,64,57,66,61,54,97,91,77,30.14,29.98,16,4,0,0.05
2013-1-4,58,56,53,57,55,52,97,96,95,30.23,30.11,18,8,0,0.14
2013-1-5,72,52,53,62,31,-100,96,70,70,30.26,30.14,13,-157,0,0.01
2013-1-6,79,54,60,68,30,-100,94,67,67,30.17,30.01,12,-199,0,0.09
2013-1-7,67,51,57,61,29,-100,95,71,71,30.18,30.08,18,-180,0,0.08
2013-1-8,79,59,62,70,38,-100,96,72,69,30.18,30.09,11,-168,0,0.00
2013-1-9,79,63,66,72,48,-100,98,79,77,30.26,30.16,8,-105,0,0.03
2013-1-10,82,64,66,70,47,-100,98,74,57,30.27,30.17,15,-108,0,0.00
2013-1-11,81,61,64,69,40,-100,95,68,58,30.22,30.11,11,-148,0,0.00
2013-1-12,81,62,64,68,43,-100,97,68,54,30.16,30.04,7,-128,0,0.00
2013-1-13,83,62,63,67,43,-100,96,68,52,30.12,30.02,12,-127,0,0.00
2013-1-14,81,65,63,66,50,-100,96,73,58,30.14,30.07,10,-85,0,0.01
2013-1-15,81,64,65,66,46,-100,95,70,56,30.11,30.01,10,-109,0,0.00
2013-1-16,81,63,64,66,41,-100,92,64,48,30.06,29.96,9,-130,0,0.00
2013-1-17,77,57,52,68,40,-100,95,72,67,30.05,29.91,23,-101,0,0.00
2013-1-18,64,42,41,57,12,-100,92,58,70,30.24,30.06,22,-236,0,0.00
2013-1-19,72,52,55,61,28,-100,89,64,61,30.25,30.10,17,-174,0,0.09
2013-1-20,71,54,59,62,36,-100,96,72,71,30.14,30.00,14,-135,0,0.01
2013-1-21,75,56,61,61,34,-100,82,64,54,30.05,29.94,12,-142,0,0.00
2013-1-22,63,47,51,55,18,-100,80,50,36,30.23,30.02,16,-174,0,0.00
2013-1-23,66,49,48,46,20,-100,81,47,30,30.32,30.23,12,-138,0,0.00
2013-1-24,74,59,49,53,40,-100,83,57,33,30.29,30.17,13,-46,0,0.25
2013-1-25,77,55,54,57,26,-100,95,53,34,30.27,30.12,7,-155,0,0.00
2013-1-26,74,56,54,56,32,-100,93,59,49,30.23,30.12,8,-138,0,0.00
2013-1-27,77,57,58,63,35,-100,95,65,45,30.27,30.18,18,-142,0,0.57
2013-1-28,76,61,63,64,43,-100,92,69,58,30.30,30.20,13,-115,0,0.06
2013-1-29,84,59,64,70,35,-100,96,65,49,30.21,30.06,12,-179,0,0.26
2013-1-30,82,63,65,66,39,-100,93,62,54,30.08,29.84,19,-147,0,0.00
2013-1-31,71,50,49,65,18,-100,93,45,29,30.19,29.84,21,-145,0,0.10
2013-2-1,68,47,44,38,8,-100,63,33,20,30.31,30.18,14,-170,0,0.00
2013-2-2,71,47,46,49,10,-100,71,40,32,30.27,30.09,12,-214,0,0.00
2013-2-3,68,48,48,50,16,-100,81,47,41,30.15,30.01,16,-190,0,0.00
2013-2-4,71,48,48,46,13,-100,80,42,28,30.10,29.99,10,-195,0,0.00
2013-2-5,75,55,50,54,28,-100,83,51,41,30.06,29.95,9,-139,0,0.00
2013-2-6,79,56,61,63,28,-100,82,56,47,30.07,29.99,8,-187,0,0.00
2013-2-7,79,58,66,64,27,-100,85,53,48,30.03,29.82,15,-207,0,1.67
2013-2-8,78,41,60,64,-6,-100,87,42,49,30.03,29.82,14,-403,0,0.00
2013-2-9,74,53,56,56,28,-100,90,59,47,30.16,30.02,14,-167,0,0.79
2013-2-10,77,53,58,60,25,-100,85,57,50,30.23,30.12,17,-199,0,0.00
2013-2-11,82,60,61,63,35,-100,88,58,50,30.17,30.02,12,-160,0,0.00
2013-2-12,86,64,65,67,38,-100,91,57,37,30.06,29.87,11,-148,0,0.08
2013-2-13,84,58,64,68,32,-100,93,63,56,29.92,29.76,23,-193,0,1.12
2013-2-14,65,47,56,60,21,-100,95,67,75,30.00,29.87,16,-230,0,0.21
2013-2-15,69,46,52,56,20,-100,96,63,53,30.04,29.91,13,-216,0,0.02
2013-2-16,68,48,48,52,18,-100,88,49,32,30.07,29.85,19,-157,0,11.24
2013-2-17,56,41,39,31,2,-100,57,28,14,30.30,30.08,15,-123,0,1.25
2013-2-18,66,48,39,47,21,-100,79,48,28,30.33,30.18,14,-109,0,0.63
2013-2-19,77,57,52,58,31,-100,87,54,43,30.18,30.01,16,-138,0,0.00
2013-2-20,77,56,59,60,34,-100,90,61,47,30.09,29.97,13,-130,0,0.01
2013-2-21,82,49,58,65,11,-100,88,49,43,30.07,29.95,9,-297,0,0.00
2013-2-22,87,67,65,70,49,-100,94,69,42,30.04,29.94,14,-96,0,0.84
2013-2-23,88,67,70,69,43,-100,92,61,39,29.96,29.81,16,-129,0,0.61
2013-2-24,74,61,65,70,47,-100,95,80,84,29.92,29.82,11,-116,0,0.02
2013-2-25,85,62,65,71,42,-100,96,69,48,29.88,29.71,20,-143,0,0.16
2013-2-26,76,60,65,70,42,-100,94,74,74,29.81,29.69,24,-138,0,0.02
2013-2-27,73,56,56,61,35,-100,92,62,52,29.93,29.81,16,-126,0,0.00
2013-2-28,72,54,53,53,31,-100,87,56,37,29.95,29.82,20,-115,0,0.00
2013-3-1,64,39,51,48,-2,-100,81,40,34,29.95,29.86,16,-295,0,0.00
2013-3-2,56,44,42,37,15,-100,63,45,33,29.98,29.90,26,-126,0,0.00
2013-3-3,50,37,38,32,9,-100,72,49,48,30.11,29.95,22,-160,0,0.00
2013-3-4,65,44,39,38,11,-100,75,40,24,30.19,30.07,13,-148,0,0.00
2013-3-5,78,57,48,57,29,-100,81,48,21,30.14,29.96,15,-92,0,0.28
2013-3-6,66,51,49,59,21,-100,91,46,27,30.09,29.88,19,-122,0,0.00
2013-3-7,67,49,42,47,25,-100,80,53,39,30.18,30.08,16,-93,0,0.02
2013-3-8,59,37,47,46,6,-100,87,58,60,30.18,30.12,5,-263,0,0.00
2013-3-11,77,73,68,61,59,57,77,63,52,30.00,29.87,13,4,0,0.00
2013-3-12,70,53,64,66,30,-100,94,69,76,29.90,29.82,16,-198,0,0.41
2013-3-13,73,58,51,43,26,-100,74,38,23,30.11,30.01,21,-75,0,0.02
2013-3-14,65,48,48,31,5,-100,51,26,24,30.23,30.11,19,-170,0,0.13
2013-3-15,53,32,48,42,-12,-100,80,45,62,30.24,30.23,3,-374,0,0.00
2013-3-16,73,71,70,43,42,41,36,34,32,30.11,30.09,7,4,0,0.00
2013-3-17,76,53,61,55,13,-100,74,36,37,30.10,30.00,5,-239,0,0.08
2013-3-18,78,69,64,65,53,-100,83,64,61,30.01,29.87,13,-58,0,0.00
2013-3-19,89,78,65,62,58,51,88,53,27,29.98,29.84,11,4,0,0.00
2013-3-20,74,55,63,67,33,-100,93,69,77,29.93,29.82,9,-178,0,0.33
2013-3-21,72,62,53,43,36,26,65,40,20,29.93,29.83,18,6,0,0.03
2013-3-22,79,56,51,60,34,-100,92,60,37,29.98,29.86,12,-109,0,0.13
2013-3-23,85,63,62,71,41,-100,96,67,50,29.95,29.72,17,-142,0,0.62
2013-3-24,-200,0,200,-100,-100,-100,0,0,100,29.65,29.64,0,-999,0,0.00
2013-3-25,-200,0,200,-100,-100,-100,0,0,100,29.75,29.75,0,-999,0,0.00
2013-3-26,59,52,45,35,27,16,63,41,19,30.20,30.05,23,7,0,6.05
2013-3-27,47,40,42,35,18,-100,65,53,48,30.27,30.18,13,-99,0,0.00
2013-3-28,74,60,51,45,27,-100,68,36,17,30.26,30.13,11,-49,0,0.15
2013-3-29,68,50,50,47,26,-100,83,57,29,30.30,30.22,8,-118,0,0.00
2013-3-30,79,68,-13,53,45,-100,75,48,33,30.23,30.07,11,-30,0,0.00
2013-3-31,80,58,62,56,24,-100,74,42,36,30.13,29.95,14,-181,0,0.64
2013-4-1,78,55,65,65,27,-100,86,58,58,29.99,29.94,22,-204,0,0.00
2013-4-2,82,75,64,63,56,49,91,54,39,30.05,29.97,16,6,0,0.00
2013-4-3,82,60,63,64,35,-100,89,61,47,30.05,29.93,17,-156,0,0.95
2013-4-4,71,47,70,67,11,-100,91,60,88,29.92,29.86,13,-327,0,0.00
2013-4-5,74,60,67,66,40,-100,91,67,62,29.85,29.77,19,-135,0,0.03
2013-4-6,55,11,55,52,-70,-100,88,18,88,30.01,30.00,7,-798,0,0.00
2013-4-7,73,63,65,62,44,-100,90,64,59,30.12,30.11,13,-93,0,0.00
2013-4-8,82,72,65,64,56,-100,91,61,48,30.11,30.01,11,-30,0,0.00
2013-4-9,81,68,65,67,52,-100,94,68,49,30.13,30.04,13,-55,0,0.00
2013-4-10,84,62,64,67,44,-100,94,72,54,30.09,30.03,13,-115,0,0.00
2013-4-11,73,72,72,70,70,70,93,92,91,29.94,29.94,4,3,0,0.00
2013-4-12,84,80,75,73,71,69,91,75,65,29.86,29.76,24,8,0,0.00
2013-4-13,76,64,71,70,48,-100,91,76,81,29.92,29.83,4,-120,0,0.00
2013-4-14,71,28,70,65,-34,-100,81,32,81,29.92,29.91,6,-598,0,0.00
2013-4-15,90,76,67,67,56,-100,86,57,46,30.04,29.91,22,-49,0,0.08
2013-4-16,83,70,68,71,54,-100,95,71,57,30.11,30.01,19,-60,0,0.24
2013-4-17,82,67,66,69,52,-100,97,73,53,30.11,30.01,18,-78,0,2.45
2013-4-18,90,79,68,70,65,-100,95,66,45,30.02,29.91,14,-12,0,0.09
2013-4-19,90,76,73,73,65,-100,92,75,51,29.98,29.86,16,-31,0,0.01
2013-4-20,75,63,59,70,53,-100,91,80,76,30.11,29.91,17,-47,0,0.01
2013-4-21,77,62,59,70,48,-100,96,81,77,30.10,29.98,14,-83,0,0.00
2013-4-22,78,58,64,68,38,-100,96,74,61,30.04,29.96,22,-147,0,0.18
2013-4-23,77,64,62,65,50,-100,96,72,53,30.08,29.97,17,-60,0,0.73
2013-4-24,72,56,60,64,44,-100,95,82,73,30.11,30.04,8,-97,0,0.00
2013-4-25,71,35,71,64,-18,-100,79,40,79,30.12,30.11,0,-500,0,0.00
2013-4-29,74,74,74,67,67,67,78,78,78,29.98,29.98,3,3,0,0.00
2013-5-3,80,69,69,67,59,-100,92,78,62,29.73,0.00,25,-33,0,0.06
2013-5-4,83,69,68,70,56,-100,96,77,59,29.75,29.62,23,-59,0,0.04
2013-5-5,78,66,61,67,44,-100,92,54,27,29.89,29.71,18,-47,0,2.04
2013-5-6,79,65,62,60,44,-100,83,55,34,29.96,29.85,15,-61,0,0.00
2013-5-7,77,63,59,61,42,-100,85,60,47,30.01,29.92,20,-71,0,0.00
2013-5-8,83,70,62,62,54,-100,90,64,37,30.10,29.98,14,-26,0,0.00
2013-5-9,89,70,64,65,49,-100,90,60,25,30.11,30.03,13,-64,0,0.00
2013-5-10,92,74,67,71,61,-100,93,71,42,30.10,29.95,11,-40,0,0.07
2013-5-11,89,73,70,71,58,-100,92,69,52,30.01,29.92,24,-58,0,0.00
2013-5-12,88,74,70,71,57,-100,90,65,50,30.00,29.89,16,-51,0,0.00
2013-5-13,84,69,67,67,48,-100,89,58,30,30.09,29.95,13,-62,0,0.00
2013-5-14,82,66,61,58,40,-100,81,50,28,30.17,30.08,13,-82,0,0.00
2013-5-15,84,65,64,61,38,-100,90,52,31,30.17,30.05,14,-118,0,0.00
2013-5-16,87,67,65,64,43,-100,86,56,33,30.09,29.97,13,-115,0,0.00
2013-5-17,88,75,68,69,60,-100,89,65,36,30.06,29.99,20,-19,0,1.43
2013-5-18,94,69,70,71,45,-100,91,61,37,30.07,29.96,16,-129,0,0.00
2013-5-19,90,70,70,72,56,-100,92,74,46,30.05,29.95,16,-74,0,0.68
2013-5-20,90,72,69,73,58,-100,95,75,41,30.04,29.94,17,-63,0,0.05
2013-5-21,83,68,69,71,58,-100,96,82,61,30.00,29.90,9,-62,0,0.43
2013-5-22,89,73,69,73,65,-100,96,82,54,29.93,29.87,18,-40,0,0.01
2013-5-23,93,74,71,72,57,-100,96,69,42,29.95,29.86,14,-68,0,0.00
2013-5-24,95,76,72,72,53,-100,93,57,27,30.05,29.91,11,-72,0,0.00
2013-5-25,83,71,70,69,50,-100,91,58,40,30.15,30.03,16,-70,0,0.00
2013-5-26,85,58,66,62,22,-100,85,44,32,30.18,30.10,11,-225,0,0.06
2013-5-27,83,54,68,66,14,-100,89,44,47,30.14,30.06,18,-295,0,0.00
2013-5-28,85,74,69,71,60,-100,91,69,51,30.11,30.02,19,-36,0,0.80
2013-5-29,83,73,72,72,61,-100,93,75,56,30.10,30.02,15,-46,0,0.92
2013-5-30,84,72,72,73,59,-100,92,74,61,30.08,30.00,20,-57,0,0.28
2013-5-31,84,72,72,73,59,-100,92,73,65,30.07,29.99,18,-59,0,0.02
2013-6-1,86,72,73,73,57,-100,93,74,60,30.03,29.92,18,-74,0,0.01
2013-6-2,94,71,73,76,52,-100,96,73,50,29.97,29.83,31,-104,0,0.00
2013-6-3,92,78,74,76,70,-100,95,81,56,29.96,29.83,15,-19,0,0.00
2013-6-4,86,73,72,73,64,-100,95,81,63,30.00,29.89,17,-39,0,0.00
2013-6-5,87,67,72,73,54,-100,96,80,54,29.98,29.87,6,-99,0,0.14
2013-6-6,78,66,72,76,51,-100,97,81,75,29.88,29.61,20,-116,0,0.00
2013-6-7,88,68,74,75,47,-100,91,66,63,29.90,29.71,16,-137,0,0.00
2013-6-8,93,73,69,76,58,-100,96,75,47,30.05,29.90,20,-52,0,0.00
2013-6-9,92,74,71,76,60,-100,97,74,57,30.07,29.98,19,-72,0,0.00
2013-6-10,92,52,74,73,10,-100,94,47,42,30.06,29.96,6,-354,0,0.33
2013-6-11,94,56,73,77,24,-100,96,60,53,30.04,29.96,20,-284,0,0.00
2013-6-12,98,50,72,72,2,-100,95,41,32,30.04,29.94,13,-398,0,0.03
2013-6-13,97,60,76,76,20,-100,88,46,38,29.98,29.84,11,-298,0,0.03
2013-6-14,90,83,76,74,72,68,90,72,48,29.89,29.79,18,8,0,0.00
2013-6-15,87,76,77,76,64,-100,91,74,60,30.03,29.86,20,-49,0,0.00
2013-6-16,89,78,77,75,65,-100,88,73,56,30.05,29.98,15,-38,0,0.00
2013-6-17,92,77,74,79,68,-100,96,82,61,30.04,29.92,9,-41,0,0.00
2013-6-18,93,77,72,76,66,-100,96,77,52,30.03,29.90,10,-40,0,0.00
2013-6-19,92,82,75,76,74,70,94,76,52,29.99,29.90,12,3,0,0.00
2013-6-20,96,80,72,76,73,70,94,79,47,30.06,29.95,12,3,0,0.00
2013-6-21,93,67,72,75,48,-100,96,72,52,30.08,29.99,13,-138,0,0.00
2013-6-22,90,76,73,76,63,-100,96,74,40,30.08,30.00,12,-42,0,0.00
2013-6-23,92,72,74,74,55,-100,93,70,47,30.11,30.03,12,-94,0,0.00
2013-6-24,90,74,75,74,56,-100,93,66,49,30.14,30.04,12,-87,0,0.00
2013-6-25,91,81,75,75,73,69,94,76,53,30.12,29.99,15,4,0,0.00
2013-6-26,94,73,76,75,56,-100,93,69,45,30.04,29.96,24,-94,0,0.00
2013-6-27,96,78,74,75,62,-100,92,68,40,30.00,29.88,11,-55,0,0.00
2013-6-28,91,79,73,75,73,68,94,82,56,29.92,29.80,22,5,0,0.11
2013-6-29,92,76,75,75,58,-100,92,68,48,29.84,29.74,10,-75,0,0.01
2013-6-30,92,38,75,74,-18,-100,92,37,51,29.84,29.77,10,-520,0,0.00
2013-7-1,84,53,73,75,18,-100,94,59,70,29.98,29.82,14,-308,0,0.00
2013-7-2,85,67,72,77,52,-100,96,78,70,30.06,29.93,11,-117,0,0.02
2013-7-3,90,71,72,78,60,-100,96,81,61,30.09,30.02,12,-76,0,0.00
2013-7-4,89,72,71,74,58,-100,96,76,53,30.12,30.03,19,-73,0,0.00
2013-7-5,88,75,74,78,62,-100,95,75,57,30.12,30.02,18,-62,0,0.01
2013-7-6,88,75,75,74,60,-100,93,71,53,30.08,30.00,17,-61,0,2.49
2013-7-7,89,63,75,74,30,-100,93,53,45,30.10,30.00,13,-235,0,2.45
2013-7-8,88,51,78,76,6,-100,92,43,62,30.12,30.04,16,-388,0,0.00
2013-7-9,90,70,75,74,45,-100,94,60,45,30.12,30.02,16,-148,0,1.09
2013-7-10,91,76,75,74,60,-100,93,68,45,30.05,29.93,12,-52,0,0.20
2013-7-11,93,77,75,75,64,-100,91,73,50,30.00,29.87,16,-46,0,0.00
2013-7-12,90,72,76,76,54,-100,91,70,50,29.91,29.85,11,-108,0,0.16
2013-7-13,89,71,74,74,53,-100,93,69,47,29.96,29.86,12,-98,0,1.44
2013-7-14,89,74,72,75,67,-100,95,84,62,30.06,29.93,12,-29,0,0.00
2013-7-15,85,74,72,76,64,-100,96,80,68,30.08,29.98,17,-43,0,0.00
2013-7-16,88,71,73,75,57,-100,95,77,56,30.12,30.06,18,-81,0,2.17
2013-7-17,86,75,74,76,66,-100,96,82,62,30.12,30.04,19,-37,0,0.00
2013-7-18,85,75,74,75,65,-100,95,79,59,30.08,30.00,10,-40,0,0.16
2013-7-19,90,73,72,76,61,-100,96,78,60,30.09,29.98,10,-64,0,0.00
2013-7-20,94,69,72,78,53,-100,97,74,56,30.06,29.96,9,-118,0,0.00
2013-7-21,93,74,74,77,60,-100,92,74,53,30.08,29.97,18,-73,0,0.25
2013-7-22,91,76,74,77,68,-100,94,82,58,30.07,30.01,13,-41,0,0.00
2013-7-23,83,75,74,77,68,-100,95,85,75,30.04,29.90,18,-30,0,0.00
2013-7-24,89,76,76,77,65,-100,94,77,58,29.94,29.83,15,-49,0,0.27
2013-7-25,84,76,74,76,67,-100,92,81,71,29.93,29.82,15,-39,0,0.00
2013-7-26,92,77,76,78,64,-100,95,74,59,29.96,29.89,10,-63,0,0.00
2013-7-27,93,79,76,78,69,-100,96,78,54,29.95,29.84,12,-31,0,0.00
2013-7-28,96,75,72,74,61,-100,95,74,35,30.02,29.89,29,-54,0,0.12
2013-7-29,95,76,74,76,65,-100,96,79,50,30.11,29.98,10,-52,0,0.00
2013-7-30,93,76,77,76,58,-100,96,67,40,30.13,30.03,11,-84,0,0.45
2013-7-31,96,76,75,78,62,-100,95,74,43,30.09,29.96,13,-66,0,0.00
2013-8-1,95,74,75,77,63,-100,95,79,49,30.03,29.91,12,-56,0,0.00
2013-8-2,92,78,75,77,64,-100,95,73,51,29.99,29.90,13,-52,0,0.00
2013-8-3,91,75,75,77,63,-100,95,77,56,30.04,29.95,13,-63,0,0.00
2013-8-4,89,75,76,78,62,-100,95,79,65,30.04,29.93,18,-70,0,0.00
2013-8-5,97,79,75,78,70,-100,94,79,42,29.97,29.86,12,-23,0,0.21
2013-8-6,94,76,74,78,62,-100,96,74,55,29.93,29.85,12,-72,0,0.00
2013-8-7,92,80,78,78,68,-100,94,76,59,29.93,29.87,13,-40,0,0.00
2013-8-8,92,77,77,77,60,-100,94,70,50,30.01,29.91,12,-77,0,0.52
2013-8-9,93,78,77,77,63,-100,93,71,54,30.03,29.93,19,-62,0,0.00
2013-8-10,96,78,75,77,60,-100,90,66,48,30.08,29.99,12,-75,0,0.21
2013-8-11,99,82,77,79,70,-100,95,72,40,30.11,30.01,8,-24,0,0.00
2013-8-12,93,80,77,76,66,-100,93,69,49,30.08,29.95,12,-41,0,0.00
2013-8-13,100,82,77,76,64,-100,91,64,38,30.01,29.87,9,-52,0,0.00
2013-8-14,96,75,77,77,59,-100,90,71,51,29.97,29.85,23,-88,0,0.10
2013-8-15,96,77,77,77,60,-100,92,68,41,29.99,29.87,14,-79,0,0.18
2013-8-16,95,76,74,77,60,-100,91,71,45,30.02,29.91,11,-74,0,0.04
2013-8-17,96,76,75,80,63,-100,96,76,54,30.05,29.94,13,-74,0,0.27
2013-8-18,90,76,77,77,62,-100,94,72,54,30.06,29.96,14,-72,0,0.85
2013-8-19,91,77,76,78,64,-100,95,75,61,30.05,29.93,13,-62,0,0.00
2013-8-20,92,80,77,77,67,-100,94,71,46,30.06,29.95,20,-39,0,1.48
2013-8-21,89,72,75,78,58,-100,94,76,62,30.07,30.00,18,-96,0,0.28
2013-8-22,89,76,76,78,68,-100,96,84,67,30.05,29.95,14,-43,0,0.00
2013-8-23,92,74,75,79,64,-100,97,83,59,29.99,29.91,18,-60,0,0.21
2013-8-24,95,71,74,79,58,-100,97,79,54,30.07,29.96,23,-96,0,0.17
2013-8-25,84,69,74,77,54,-100,97,78,74,30.11,30.04,12,-116,0,0.19
2013-8-26,87,70,74,75,50,-100,95,68,56,30.10,29.97,16,-124,0,3.14
2013-8-27,87,72,74,75,52,-100,96,66,54,30.03,29.95,18,-104,0,0.07
2013-8-28,90,77,74,74,60,-100,92,65,42,30.02,29.93,12,-51,0,0.02
2013-8-29,96,79,75,74,62,-100,89,66,40,29.99,29.88,10,-52,0,0.01
2013-8-30,96,77,77,76,62,-100,89,71,47,29.94,29.83,16,-62,0,0.11
2013-8-31,92,74,73,76,58,-100,93,72,55,29.93,29.82,14,-84,0,0.31
2013-9-1,94,74,74,75,58,-100,94,72,51,29.96,29.84,10,-84,0,0.27
2013-9-2,96,75,74,75,58,-100,93,69,40,29.97,29.88,12,-84,0,0.00
2013-9-3,98,74,75,74,49,-100,93,59,34,29.98,29.87,9,-127,0,0.02
2013-9-4,96,76,77,77,61,-100,87,69,50,30.05,29.93,15,-70,0,0.03
2013-9-5,95,75,75,78,61,-100,89,73,55,30.06,29.96,8,-74,0,0.34
2013-9-6,94,70,71,76,52,-100,97,74,47,30.01,29.93,27,-119,0,1.80
2013-9-7,91,60,72,77,30,-100,97,62,58,29.97,29.88,13,-236,0,0.08
2013-9-8,88,75,74,75,60,-100,94,72,55,29.93,29.84,18,-66,0,0.00
2013-9-9,90,71,74,74,49,-100,91,64,49,30.00,29.89,16,-123,0,0.00
2013-9-10,87,72,76,74,53,-100,93,67,52,30.05,29.96,18,-104,0,0.00
2013-9-11,87,74,76,74,56,-100,93,68,53,30.04,29.95,18,-88,0,0.00
2013-9-12,89,72,75,76,55,-100,94,72,61,29.98,29.85,19,-106,0,0.00
2013-9-13,94,74,74,75,54,-100,92,65,47,29.86,29.74,7,-108,0,0.00
2013-9-14,96,76,78,76,59,-100,89,68,48,29.94,29.78,9,-84,0,0.00
2013-9-15,88,73,77,77,58,-100,94,73,61,30.03,29.93,13,-95,0,0.00
2013-9-16,89,74,74,76,56,-100,95,70,49,30.04,29.94,13,-83,0,0.69
2013-9-17,88,71,75,74,51,-100,93,65,51,30.02,29.92,17,-116,0,5.23
2013-9-18,86,70,75,76,53,-100,92,71,62,30.00,29.93,22,-106,0,0.65
2013-9-19,88,71,75,75,54,-100,93,71,57,30.01,29.94,20,-101,0,0.00
2013-9-20,86,70,73,71,50,-100,87,65,57,29.99,29.87,13,-115,0,0.00
2013-9-21,90,72,73,72,49,-100,91,61,40,29.91,29.72,10,-118,0,0.00
2013-9-22,89,71,74,75,56,-100,95,75,61,29.82,29.70,30,-94,0,0.32
2013-9-23,88,68,73,77,55,-100,97,81,67,29.92,29.80,7,-109,0,0.14
2013-9-24,83,61,73,76,40,-100,97,74,76,29.92,29.79,11,-193,0,0.16
2013-9-25,81,65,73,74,46,-100,96,73,74,29.81,29.73,16,-144,0,0.12
2013-9-26,90,73,73,77,57,-100,96,72,44,29.83,29.72,17,-80,0,0.11
2013-9-27,78,65,70,72,50,-100,95,78,79,29.92,29.81,19,-113,0,0.05
2013-9-28,82,66,71,72,47,-100,95,70,60,29.97,29.87,16,-139,0,1.70
2013-9-29,86,70,70,72,54,-100,94,71,51,29.95,29.86,19,-82,0,0.05
2013-9-30,88,68,71,73,48,-100,92,67,50,29.98,29.87,14,-127,0,0.05
2013-10-1,89,72,74,71,54,-100,88,67,50,30.03,29.94,14,-86,0,1.46
2013-10-2,87,70,71,71,51,-100,89,65,52,30.03,29.95,17,-100,0,0.12
2013-10-3,87,71,72,74,54,-100,89,68,56,30.03,29.94,9,-94,0,0.00
2013-10-4,89,69,74,74,48,-100,94,66,51,30.04,29.95,15,-132,0,0.00
2013-10-5,86,69,73,73,48,-100,93,66,50,30.02,29.92,14,-126,0,0.57
2013-10-6,92,70,74,76,52,-100,96,73,53,29.94,29.81,23,-116,0,0.00
2013-10-7,85,69,72,76,56,-100,95,80,72,29.83,29.70,13,-94,0,0.01
2013-10-8,88,69,73,74,54,-100,96,76,59,29.91,29.73,17,-103,0,0.71
2013-10-9,78,63,68,70,47,-100,92,74,73,30.00,29.88,17,-118,0,0.00
2013-10-10,84,67,66,69,50,-100,93,70,55,30.02,29.92,14,-91,0,0.00
2013-10-11,86,68,68,68,48,-100,92,63,48,30.00,29.89,8,-107,0,0.00
2013-10-12,89,70,70,69,45,-100,93,56,29,30.00,29.92,6,-108,0,0.10
2013-10-13,84,68,70,66,44,-100,87,57,44,30.04,29.95,12,-114,0,0.00
2013-10-14,84,67,69,69,49,-100,91,68,55,30.00,29.89,15,-102,0,0.00
2013-10-15,81,63,68,72,45,-100,96,75,71,29.96,29.85,11,-138,0,0.00
2013-10-16,87,66,70,72,45,-100,97,68,54,29.94,29.85,7,-143,0,0.00
2013-10-17,90,68,72,74,48,-100,97,68,46,29.94,29.84,8,-129,0,0.00
2013-10-18,93,71,73,74,51,-100,95,66,46,29.95,29.84,13,-118,0,0.00
2013-10-19,91,70,74,74,48,-100,91,63,50,29.91,29.81,10,-138,0,0.00
2013-10-20,88,67,74,74,45,-100,92,65,57,29.93,29.81,12,-149,0,0.00
2013-10-21,93,70,74,76,51,-100,95,71,54,29.95,29.85,18,-120,0,0.00
2013-10-22,88,67,73,74,44,-100,96,65,60,29.91,29.76,20,-158,0,0.00
2013-10-23,83,57,68,70,19,-100,90,42,34,29.96,29.75,14,-241,0,0.00
2013-10-24,72,54,62,59,25,-100,84,53,52,30.12,29.97,12,-189,0,0.00
2013-10-25,82,61,60,59,33,-100,85,52,28,30.20,30.11,15,-125,0,0.00
2013-10-26,77,59,58,59,35,-100,87,58,43,30.17,30.05,10,-126,0,0.00
2013-10-27,77,59,58,59,37,-100,89,61,45,30.10,30.02,12,-116,0,0.00
2013-10-28,84,62,60,64,39,-100,87,61,38,30.15,30.06,16,-127,0,0.00
2013-10-29,81,64,63,67,44,-100,93,66,51,30.18,30.10,18,-113,0,0.17
2013-10-30,81,64,66,69,44,-100,92,67,61,30.19,30.07,14,-131,0,0.00
2013-10-31,85,66,69,69,44,-100,91,62,42,30.10,29.94,12,-126,0,0.00
2013-11-1,90,70,71,72,48,-100,94,61,41,29.97,29.81,16,-114,0,0.00
2013-11-2,76,60,62,71,44,-100,93,78,79,29.93,29.76,11,-121,0,0.50
2013-11-3,73,52,61,60,21,-100,93,52,41,30.08,29.91,21,-201,0,0.00
2013-11-4,76,56,62,64,31,-100,85,61,53,30.14,30.06,18,-175,0,0.00
2013-11-5,79,58,68,68,34,-100,92,65,64,30.12,30.05,22,-184,0,0.00
2013-11-6,79,62,68,68,40,-100,93,67,58,30.08,30.00,14,-154,0,0.00
2013-11-7,78,60,67,70,38,-100,96,69,69,30.02,29.92,12,-171,0,0.02
2013-11-8,76,54,62,66,27,-100,93,64,61,30.09,29.95,22,-208,0,0.00
2013-11-9,78,59,63,64,35,-100,88,61,52,30.15,30.06,14,-156,0,0.00
2013-11-10,79,60,62,67,40,-100,94,70,61,30.13,30.05,13,-141,0,0.00
2013-11-11,80,62,64,68,41,-100,95,67,51,30.13,30.03,15,-135,0,0.00
2013-11-12,81,61,64,67,38,-100,95,64,53,30.08,29.96,11,-149,0,0.00
2013-11-13,67,50,53,59,26,-100,84,61,57,30.28,30.04,32,-154,0,0.00
2013-11-14,74,54,52,58,28,-100,88,57,44,30.27,30.15,14,-162,0,0.00
2013-11-15,77,52,62,66,21,-100,92,60,60,30.17,30.05,7,-250,0,0.04
2013-11-16,75,57,67,72,36,-100,96,75,84,30.10,30.00,10,-190,0,0.09
2013-11-17,87,61,68,72,34,-100,97,61,52,30.05,29.95,12,-204,0,0.00
2013-11-18,83,65,71,70,43,-100,93,66,59,30.00,29.87,8,-160,0,0.00
2013-11-19,78,56,64,69,29,-100,93,60,48,29.95,29.84,14,-200,0,0.00
2013-11-20,78,55,64,70,29,-100,95,66,74,30.07,29.93,16,-223,0,0.02
2013-11-21,77,55,69,71,30,-100,95,70,73,30.16,30.06,16,-225,0,0.19
2013-11-22,77,59,69,71,37,-100,94,69,69,30.17,30.07,13,-178,0,0.02
2013-11-23,84,63,67,68,40,-100,92,63,51,30.07,29.96,6,-149,0,0.00
2013-11-24,69,52,60,66,28,-100,90,64,69,30.20,29.99,27,-173,0,0.00
2013-11-25,73,53,63,62,25,-100,84,57,51,30.22,30.04,20,-197,0,0.00
2013-11-26,81,58,67,72,31,-100,95,63,71,30.04,29.70,18,-223,0,0.01
2013-11-27,74,45,42,71,16,-100,94,60,66,30.17,29.65,22,-228,0,0.09
2013-11-28,65,43,38,51,17,-100,87,59,53,30.31,30.17,17,-183,0,0.00
2013-11-29,70,51,50,57,29,-100,93,65,60,30.33,30.25,19,-143,0,0.00
2013-11-30,74,54,56,64,33,-100,96,70,65,30.27,30.15,19,-174,0,0.00
2013-12-1,72,53,61,65,33,-100,97,74,76,30.15,29.94,14,-176,0,0.00
2013-12-2,74,50,60,62,20,-100,97,58,48,29.94,29.78,9,-234,0,0.00
2013-12-3,79,57,58,61,31,-100,91,59,52,29.96,29.85,6,-172,0,0.00
2013-12-4,84,60,64,68,37,-100,92,63,47,30.05,29.93,9,-165,0,0.00
2013-12-5,84,63,66,68,41,-100,91,65,56,30.14,30.04,8,-150,0,0.00
2013-12-6,84,63,68,71,41,-100,96,65,51,30.14,30.05,12,-159,0,0.00
2013-12-7,84,63,69,68,37,-100,91,58,42,30.20,30.10,7,-161,0,0.00
2013-12-8,82,63,67,68,40,-100,95,64,47,30.20,30.07,11,-149,0,0.00
2013-12-9,83,63,68,71,39,-100,94,64,57,30.16,30.05,9,-163,0,0.00
2013-12-10,85,64,67,68,37,-100,88,57,41,30.15,30.02,19,-158,0,0.00
2013-12-11,84,60,60,68,36,-100,89,61,49,30.21,30.11,18,-153,0,0.00
2013-12-12,68,49,53,60,18,-100,94,49,27,30.28,30.16,21,-187,0,0.00
2013-12-13,72,52,50,57,25,-100,83,56,47,30.23,30.09,11,-170,0,0.00
2013-12-14,80,58,62,71,31,-100,90,61,59,30.09,29.89,12,-200,0,0.02
2013-12-15,72,53,58,69,29,-100,94,65,63,30.08,29.83,15,-192,0,0.01
2013-12-16,62,45,49,53,20,-100,87,60,57,30.20,30.07,14,-180,0,0.00
2013-12-17,71,49,47,55,26,-100,86,61,57,30.21,30.11,13,-157,0,0.00
2013-12-18,68,49,49,51,22,-100,84,53,43,30.25,30.15,14,-151,0,0.00
2013-12-19,75,52,50,57,25,-100,86,56,42,30.25,30.14,8,-171,0,0.00
2013-12-20,84,59,56,63,33,-100,93,60,49,30.18,30.07,9,-154,0,0.00
2013-12-21,83,62,65,71,40,-100,96,67,56,30.11,30.00,12,-158,0,0.00
2013-12-22,85,63,69,72,40,-100,96,66,60,30.10,30.03,12,-172,0,0.00
2013-12-23,85,62,68,72,36,-100,97,62,45,30.13,30.03,17,-192,0,0.00
2013-12-24,73,46,52,70,12,-100,94,51,26,30.23,30.04,20,-242,0,0.00
2013-12-25,66,49,47,56,31,-100,92,68,66,30.21,30.14,11,-111,0,0.00
2013-12-26,76,66,57,61,58,55,94,79,58,30.18,30.06,19,7,0,0.00
2013-12-27,70,51,58,63,29,-100,95,72,76,30.22,30.13,16,-191,0,0.00
2013-12-28,74,55,64,70,31,-100,97,72,81,30.19,29.98,12,-211,0,0.05
2013-12-29,77,54,65,72,28,-100,96,70,80,29.97,29.84,14,-235,0,0.28
2013-12-30,69,49,57,64,24,-100,96,66,59,30.16,29.95,13,-201,0,0.02
2013-12-31,69,49,58,54,18,-100,87,53,43,30.27,30.13,13,-213,0,0.00
2014-1-1,63,47,58,62,22,-100,97,71,85,30.21,30.03,14,-228,0,0.01
2014-1-2,79,52,59,71,26,-100,98,70,73,30.02,29.77,22,-233,0,0.36